Weather History for Corpus Christi, TX

Change the Weather History Date:

Tuesday, January 15, 2013

  Actual Average Record
Temperature  
Mean Temperature 45 °F 57 °F  
Max Temperature 46 °F 67 °F 80 °F (1996)
Min Temperature 43 °F 47 °F 16 °F (1888)
Degree Days  
Heating Degree Days 20 9  
Month to date heating degree days 141 135  
Since 1 July heating degree days 316 486  
Cooling Degree Days 0 1  
Month to date cooling degree days 11 15  
Year to date cooling degree days 11 15  
Moisture  
Dew Point 40 °F    
Average Humidity 85    
Maximum Humidity 93    
Minimum Humidity 76    
Precipitation  
Precipitation 0.08 in 0.05 in 1.65 in (2010)
Month to date precipitation 1.25 0.76  
Year to date precipitation 1.25 0.76  
Snow  
Snow 0.00 in - - ()
Month to date snowfall 0.0  
Since 1 July snowfall 0.0  
Snow Depth 0.00 in    
Sea Level Pressure  
Sea Level Pressure 30.11 in    
Wind  
Wind Speed 15 mph (North)    
Max Wind Speed 24 mph    
Max Gust Speed 29 mph    
Visibility 7 miles    
Events Rain    
T = Trace of Precipitation, MM = Missing Value Source: NWS Daily Summary

Daily Weather History Graph

Daily Weather History Graph

Search for Another Location

Airport:

Trip Planner

Search our weather history database for the weather conditions in past years. The results will help you decide how hot, cold, wet, or windy it might be!

Date:

Astronomy

Jan. 15, 2013 Rise Set
Actual Time 7:22 AM CST 5:57 PM CST
Civil Twilight 6:56 AM CST 6:22 PM CST
Nautical Twilight 6:28 AM CST 6:51 PM CST
Astronomical Twilight 6:00 AM CST 7:19 PM CST
Moon 9:55 AM CST (1/15) 10:18 PM CST (1/15)
Length of Visible Light 11h 25m
Length of Day
10h 35m
Waxing Crescent, 19% of the Moon is Illuminated
Jan 15
Waxing Crescent
Jan 18
First Quarter
Jan 26
Full
Feb 3
Last Quarter
Feb 10
New

Hourly Weather History & Observations

Time (CST) Temp. Windchill Dew Point Humidity Pressure Visibility Wind Dir Wind Speed Gust Speed Precip Events Conditions
12:51 AM 46.0 °F 41.4 °F 43.0 °F 89% 30.07 in 4.0 mi North 9.2 mph - 0.00 in   Light Drizzle
1:51 AM 46.0 °F 41.9 °F 43.0 °F 89% 30.07 in 4.0 mi NNW 8.1 mph - 0.00 in   Light Drizzle
2:15 AM 46.4 °F 41.9 °F 42.8 °F 87% 30.07 in 3.0 mi NNW 9.2 mph - 0.01 in   Light Drizzle
2:51 AM 46.4 °F 40.7 °F 42.8 °F 87% 30.07 in 3.0 mi NW 12.7 mph - N/A Rain Light Rain
3:10 AM 46.4 °F 40.7 °F 42.8 °F 87% 30.06 in 3.0 mi NNW 12.7 mph - 0.00 in Rain Light Rain
3:51 AM 46.0 °F 39.3 °F 44.1 °F 93% 30.07 in 4.0 mi NNW 16.1 mph - 0.01 in Rain Light Rain
4:51 AM 46.0 °F 39.9 °F 43.0 °F 89% 30.05 in 4.0 mi North 13.8 mph - 0.01 in Rain Light Rain
5:51 AM 46.0 °F 39.6 °F 43.0 °F 89% 30.06 in 4.0 mi North 15.0 mph - 0.01 in Rain Light Rain
6:51 AM 46.0 °F 39.9 °F 43.0 °F 89% 30.07 in 4.0 mi North 13.8 mph - 0.01 in Rain Light Rain
7:51 AM 45.0 °F 37.9 °F 42.1 °F 90% 30.09 in 4.0 mi NNE 16.1 mph - 0.01 in   Light Drizzle
8:51 AM 45.0 °F 37.9 °F 42.1 °F 90% 30.09 in 4.0 mi North 16.1 mph - 0.00 in   Light Drizzle
9:51 AM 45.0 °F 37.6 °F 41.0 °F 86% 30.13 in 5.0 mi North 17.3 mph - 0.00 in   Light Drizzle
10:22 AM 44.6 °F 38.1 °F 41.0 °F 87% 30.12 in 4.0 mi North 13.8 mph - 0.00 in   Light Drizzle
10:51 AM 45.0 °F 38.2 °F 41.0 °F 86% 30.12 in 4.0 mi North 15.0 mph - 0.00 in   Light Drizzle
11:23 AM 44.6 °F 38.4 °F 42.8 °F 93% 30.11 in 6.0 mi North 12.7 mph - 0.00 in   Light Drizzle
11:51 AM 45.0 °F 38.2 °F 41.0 °F 86% 30.10 in 4.0 mi North 15.0 mph - 0.00 in   Light Drizzle
12:28 PM 44.6 °F 38.1 °F 41.0 °F 87% 30.10 in 4.0 mi North 13.8 mph - 0.00 in   Light Drizzle
12:51 PM 45.0 °F 38.5 °F 41.0 °F 86% 30.07 in 4.0 mi North 13.8 mph - 0.00 in   Light Drizzle
1:51 PM 44.1 °F 36.5 °F 41.0 °F 89% 30.07 in 8.0 mi North 17.3 mph - 0.00 in   Light Drizzle
2:39 PM 44.6 °F 38.1 °F 39.2 °F 81% 30.07 in 10.0 mi NNW 13.8 mph - 0.00 in   Overcast
2:51 PM 44.6 °F 37.2 °F 39.2 °F 81% 30.08 in 10.0 mi North 17.3 mph - N/A   Overcast
3:44 PM 44.6 °F 38.1 °F 39.2 °F 81% 30.09 in 10.0 mi NNW 13.8 mph - N/A   Overcast
3:51 PM 44.1 °F 36.8 °F 39.0 °F 82% 30.09 in 10.0 mi NNW 16.1 mph - N/A   Overcast
4:17 PM 44.6 °F 36.9 °F 37.4 °F 76% 30.10 in 10.0 mi North 18.4 mph - N/A   Overcast
4:51 PM 44.1 °F 35.9 °F 37.0 °F 76% 30.12 in 10.0 mi North 19.6 mph - N/A   Overcast
5:51 PM 44.1 °F 37.1 °F 37.0 °F 76% 30.14 in 10.0 mi North 15.0 mph 24.2 mph N/A   Overcast
6:51 PM 43.0 °F 36.4 °F 36.0 °F 76% 30.16 in 10.0 mi North 12.7 mph - N/A   Overcast
7:07 PM 42.8 °F 36.2 °F 37.4 °F 81% 30.15 in 10.0 mi North 12.7 mph - N/A   Overcast
7:51 PM 43.0 °F 34.2 °F 35.1 °F 74% 30.16 in 10.0 mi North 20.7 mph 26.5 mph N/A   Overcast
8:51 PM 43.0 °F 34.8 °F 36.0 °F 76% 30.19 in 10.0 mi North 18.4 mph - N/A   Overcast
9:51 PM 43.0 °F 35.7 °F 36.0 °F 76% 30.20 in 10.0 mi NNW 15.0 mph - N/A   Overcast
10:51 PM 43.0 °F 35.4 °F 36.0 °F 76% 30.22 in 10.0 mi North 16.1 mph - N/A   Overcast
11:51 PM 44.1 °F 37.7 °F 36.0 °F 73% 30.24 in 10.0 mi NNW 12.7 mph 21.9 mph N/A   Overcast